| time (UTC) | temp C | wind direction | speed KPH | gust KPH | rain 1hr cm | rain 24hr cm | rain mn cm | humidity % | barometer mb |
| 20260504081006 | 10 | 159 | 1.6 | 3.2 | 0.00 | 0.00 | 0.00 | 57 | 1015.8 |
| 20260504050741 | 11 | 192 | 0.0 | 4.8 | 0.00 | 0.00 | 0.00 | 58 | 1015.6 |
| 20260504045741 | 11 | 190 | 1.6 | 4.8 | 0.00 | 0.00 | 0.00 | 58 | 1015.8 |
| 20260504044739 | 11 | 190 | 1.6 | 6.4 | 0.00 | 0.00 | 0.00 | 58 | 1015.7 |
| 20260504043738 | 11 | 190 | 1.6 | 6.4 | 0.00 | 0.00 | 0.00 | 59 | 1015.3 |
| 20260504042738 | 11 | 219 | 3.2 | 4.8 | 0.00 | 0.00 | 0.00 | 60 | 1015.3 |
| 20260504041736 | 12 | 223 | 1.6 | 6.4 | 0.00 | 0.00 | 0.00 | 60 | 1015.3 |
| 20260504040704 | 12 | 229 | 3.2 | 6.4 | 0.00 | 0.00 | 0.00 | 60 | 1015.4 |
| 20260504035703 | 13 | 303 | 1.6 | 3.2 | 0.00 | 0.00 | 0.00 | 59 | 1015.5 |
| 20260504034702 | 13 | 303 | 1.6 | 3.2 | 0.00 | 0.00 | 0.00 | 58 | 1015.6 |
| 20260504033700 | 13 | 304 | 1.6 | 3.2 | 0.00 | 0.00 | 0.00 | 58 | 1015.6 |
| 20260504032659 | 15 | 304 | 1.6 | 3.2 | 0.00 | 0.00 | 0.00 | 56 | 1015.8 |
| 20260504031659 | 16 | 321 | 1.6 | 3.2 | 0.00 | 0.00 | 0.00 | 52 | 1016.1 |
| 20260504030657 | 17 | 321 | 1.6 | 3.2 | 0.00 | 0.00 | 0.00 | 48 | 1016.0 |
| 20260504025657 | 18 | 321 | 1.6 | 3.2 | 0.00 | 0.00 | 0.00 | 43 | 1016.1 |
| 20260504024656 | 19 | 321 | 0.0 | 1.6 | 0.00 | 0.00 | 0.00 | 41 | 1016.1 |
| 20260504023655 | 20 | 321 | 0.0 | 3.2 | 0.00 | 0.00 | 0.00 | 41 | 1016.2 |
| 20260504022654 | 20 | 321 | 0.0 | 3.2 | 0.00 | 0.00 | 0.00 | 39 | 1016.2 |
| 20260504021653 | 20 | 321 | 1.6 | 3.2 | 0.00 | 0.00 | 0.00 | 37 | 1016.0 |
| 20260504020621 | 21 | 323 | 0.0 | 1.6 | 0.00 | 0.00 | 0.00 | 37 | 1015.9 |
| 20260504015620 | 21 | 336 | 1.6 | 3.2 | 0.00 | 0.00 | 0.00 | 37 | 1015.9 |
| 20260504014619 | 21 | 345 | 1.6 | 8.0 | 0.00 | 0.00 | 0.00 | 35 | 1016.1 |
| 20260504013618 | 21 | 326 | 3.2 | 8.0 | 0.00 | 0.00 | 0.00 | 36 | 1016.1 |
| 20260504012616 | 22 | 326 | 1.6 | 6.4 | 0.00 | 0.00 | 0.00 | 34 | 1015.9 |
| 20260504011545 | 22 | 328 | 1.6 | 12.9 | 0.00 | 0.00 | 0.00 | 32 | 1015.7 |
| 20260504010544 | 22 | 7 | 1.6 | 12.9 | 0.00 | 0.00 | 0.00 | 33 | 1015.7 |
| 20260504005512 | 22 | 10 | 1.6 | 9.7 | 0.00 | 0.00 | 0.00 | 34 | 1016.0 |
| 20260504004511 | 22 | 7 | 3.2 | 6.4 | 0.00 | 0.00 | 0.00 | 34 | 1016.0 |
| 20260504003510 | 22 | 8 | 3.2 | 4.8 | 0.00 | 0.00 | 0.00 | 34 | 1016.0 |
| 20260504002508 | 22 | 13 | 3.2 | 4.8 | 0.00 | 0.00 | 0.00 | 33 | 1016.0 |
| 20260504001508 | 22 | 11 | 3.2 | 8.0 | 0.00 | 0.00 | 0.00 | 32 | 1016.1 |
| 20260504000436 | 22 | 5 | 3.2 | 6.4 | 0.00 | 0.00 | 0.00 | 33 | 1016.1 |
| 20260503235301 | 22 | 21 | 3.2 | 14.5 | 0.00 | 0.00 | 0.00 | 34 | 1016.4 |
| 20260503234300 | 22 | 20 | 8.0 | 14.5 | 0.00 | 0.00 | 0.00 | 38 | 1016.2 |
| 20260503233228 | 22 | 29 | 1.6 | 6.4 | 0.00 | 0.00 | 0.00 | 39 | 1016.7 |
| 20260503232226 | 22 | 23 | 1.6 | 6.4 | 0.00 | 0.00 | 0.00 | 36 | 1016.4 |
| 20260503231225 | 22 | 33 | 1.6 | 6.4 | 0.00 | 0.00 | 0.00 | 36 | 1016.7 |
| 20260503230224 | 23 | 10 | 1.6 | 11.3 | 0.00 | 0.00 | 0.00 | 37 | 1016.8 |
| 20260503225223 | 23 | 11 | 3.2 | 11.3 | 0.00 | 0.00 | 0.00 | 36 | 1016.9 |
| 20260503224222 | 23 | 280 | 3.2 | 11.3 | 0.00 | 0.00 | 0.00 | 33 | 1017.3 |
| 20260503223221 | 22 | 288 | 3.2 | 11.3 | 0.00 | 0.00 | 0.00 | 37 | 1017.2 |
| 20260503222220 | 23 | 318 | 3.2 | 11.3 | 0.00 | 0.00 | 0.00 | 37 | 1017.4 |
| 20260503221218 | 23 | 341 | 1.6 | 8.0 | 0.00 | 0.00 | 0.00 | 33 | 1017.3 |
| 20260503220218 | 23 | 17 | 3.2 | 8.0 | 0.00 | 0.00 | 0.00 | 34 | 1017.8 |
| 20260503215216 | 23 | 315 | 3.2 | 6.4 | 0.00 | 0.00 | 0.00 | 34 | 1017.8 |
| 20260503214214 | 23 | 348 | 3.2 | 6.4 | 0.00 | 0.00 | 0.00 | 33 | 1017.8 |
| 20260503213213 | 23 | 14 | 3.2 | 6.4 | 0.00 | 0.00 | 0.00 | 32 | 1018.0 |
| 20260503212212 | 22 | 10 | 3.2 | 4.8 | 0.00 | 0.00 | 0.00 | 34 | 1018.0 |
| 20260503211211 | 23 | 340 | 1.6 | 9.7 | 0.00 | 0.00 | 0.00 | 31 | 1018.4 |
| 20260503210210 | 23 | 11 | 1.6 | 11.3 | 0.00 | 0.00 | 0.00 | 33 | 1018.5 |
| 20260503205209 | 23 | 338 | 1.6 | 9.7 | 0.00 | 0.00 | 0.00 | 33 | 1019.0 |
| 20260503204208 | 23 | 319 | 1.6 | 9.7 | 0.00 | 0.00 | 0.00 | 34 | 1019.1 |
| 20260503203208 | 23 | 255 | 1.6 | 9.7 | 0.00 | 0.00 | 0.00 | 32 | 1019.0 |
| 20260503202207 | 23 | 295 | 3.2 | 8.0 | 0.00 | 0.00 | 0.00 | 31 | 1019.0 |
| 20260503201206 | 23 | 347 | 3.2 | 8.0 | 0.00 | 0.00 | 0.00 | 35 | 1019.3 |
| 20260503200205 | 23 | 16 | 1.6 | 8.0 | 0.00 | 0.00 | 0.00 | 35 | 1019.3 |
| 20260503195203 | 23 | 332 | 1.6 | 6.4 | 0.00 | 0.00 | 0.00 | 35 | 1019.5 |
| 20260503194131 | 22 | 31 | 1.6 | 6.4 | 0.00 | 0.00 | 0.00 | 35 | 1019.4 |
| 20260503193130 | 22 | 275 | 3.2 | 6.4 | 0.00 | 0.00 | 0.00 | 32 | 1019.4 |
| 20260503192129 | 22 | 110 | 1.6 | 6.4 | 0.00 | 0.00 | 0.00 | 38 | 1019.8 |
| 20260503191128 | 22 | 68 | 1.6 | 6.4 | 0.00 | 0.00 | 0.00 | 36 | 1019.8 |
| 20260503190127 | 22 | 14 | 3.2 | 6.4 | 0.00 | 0.00 | 0.00 | 36 | 1019.8 |
| 20260503185126 | 22 | 32 | 1.6 | 6.4 | 0.00 | 0.00 | 0.00 | 40 | 1020.1 |
| 20260503184124 | 22 | 32 | 3.2 | 6.4 | 0.00 | 0.00 | 0.00 | 37 | 1020.1 |
| 20260503183052 | 21 | 107 | 3.2 | 8.0 | 0.00 | 0.00 | 0.00 | 39 | 1020.1 |
| 20260503182052 | 21 | 18 | 4.8 | 8.0 | 0.00 | 0.00 | 0.00 | 39 | 1020.0 |
| 20260503181051 | 21 | 23 | 3.2 | 8.0 | 0.00 | 0.00 | 0.00 | 41 | 1020.4 |
| 20260503180019 | 21 | 54 | 1.6 | 6.4 | 0.00 | 0.00 | 0.00 | 41 | 1020.4 |
| 20260503175018 | 20 | 73 | 1.6 | 6.4 | 0.00 | 0.00 | 0.00 | 41 | 1020.4 |
| 20260503174017 | 21 | 31 | 1.6 | 6.4 | 0.00 | 0.00 | 0.00 | 41 | 1020.7 |
| 20260503173016 | 20 | 34 | 3.2 | 6.4 | 0.00 | 0.00 | 0.00 | 45 | 1020.7 |
| 20260503172016 | 19 | 74 | 0.0 | 4.8 | 0.00 | 0.00 | 0.00 | 48 | 1020.6 |
| 20260503171015 | 18 | 66 | 1.6 | 4.8 | 0.00 | 0.00 | 0.00 | 50 | 1020.3 |
| 20260503150656 | 14 | 24 | 1.6 | 6.4 | 0.00 | 0.00 | 0.00 | 57 | 1019.9 |
| 20260503130541 | 7 | 131 | 3.2 | 4.8 | 0.00 | 0.00 | 0.00 | 75 | 1020.3 |
| 20260503110459 | 8 | 147 | 0.0 | 6.4 | 0.00 | 0.00 | 0.00 | 70 | 1020.9 |
| 20260503090314 | 10 | 218 | 1.6 | 4.8 | 0.00 | 0.00 | 0.00 | 65 | 1020.7 |